Starlink 6110

operational
NORAD ID: 56907 Int'l Des: 2023-083 Owner: SPXS Country: US Constellation: starlink
LEOCIRCULAR

About Starlink 6110

Description loading...

Live Position

Loading 3D Globe...

Upcoming Passes

Altitude History

Altitude vs Time

uPlot chart will show altitude changes over time

Two-Line Element Set

1 56907U 23083AH 26063.16670139 .00036289 00000-0 25251-2 0 9998
2 56907 43.0003 99.1683 0001907 275.3306 139.4885 15.04877934 5672
Epoch: Mar 4, 2026 • Age: 8 hours

Current Status

Altitude 558.3 km
Velocity 7.58 km/s
Sub-Earth Point -27.91°S, 31.6°E
Launch Date Jun 12, 2023
Age 2.7 years
Type internet

Technical Details

Classification Payload
Mass 305.00 kg
Dry Mass 290.00 kg
Total Mass 305.00 kg
Length 0.20 m
Diameter 2.80 m
Span 9.00 m
Shape Box + pan
Manufacturer SPXS
Bus Type Starlink
Phase Status In Orbit
Owner/State SPXS/US

Large Constellations

Loading constellations...